This is the latest recevied weather packets stored in our database for station/object M0UPS-13. If no packets are shown the sender has not sent any weather packets the latest 10 day(s).
| Time | Temp. | Humidity | Pressure | Rain* | Wind** | Luminosity | Snow |
|---|---|---|---|---|---|---|---|
| 1777559703 | 20° C | 38% | 1020.7 hPa | 0 mm | - | 504 W/m² | - |
| 1777559403 | 20.56° C | 38% | 1020.8 hPa | 0 mm | - | 515 W/m² | - |
| 1777559102 | 20.56° C | 38% | 1021 hPa | 0 mm | - | 523 W/m² | - |
| 1777558802 | 20.56° C | 39% | 1021.1 hPa | 0 mm | - | 531 W/m² | - |
| 1777558502 | 20° C | 39% | 1021 hPa | 0 mm | - | 543 W/m² | - |
| 1777558202 | 20° C | 40% | 1021 hPa | 0 mm | - | 554 W/m² | - |
| 1777557902 | 20° C | 40% | 1021.3 hPa | 0 mm | - | 568 W/m² | - |
| 1777557603 | 20.56° C | 39% | 1021 hPa | 0 mm | - | 575 W/m² | - |
| 1777557302 | 20.56° C | 38% | 1021.3 hPa | 0 mm | - | 588 W/m² | - |
| 1777557003 | 20.56° C | 39% | 1021.1 hPa | 0 mm | - | 596 W/m² | - |
| 1777556702 | 20.56° C | 39% | 1021 hPa | 0 mm | - | 602 W/m² | - |
| 1777556402 | 20.56° C | 39% | 1021.1 hPa | 0 mm | - | 613 W/m² | - |
| 1777556102 | 20° C | 41% | 1021.4 hPa | 0 mm | - | 619 W/m² | - |
| 1777555803 | 20.56° C | 39% | 1021.3 hPa | 0 mm | - | 627 W/m² | - |
| 1777555502 | 20.56° C | 39% | 1021.4 hPa | 0 mm | - | 636 W/m² | - |
| 1777555202 | 20.56° C | 39% | 1020.9 hPa | 0 mm | - | 643 W/m² | - |
| 1777554902 | 20.56° C | 39% | 1021.3 hPa | 0 mm | - | 651 W/m² | - |
| 1777554603 | 20.56° C | 40% | 1021.3 hPa | 0 mm | - | 657 W/m² | - |
| 1777554302 | 20.56° C | 39% | 1021.3 hPa | 0 mm | - | 666 W/m² | - |
| 1777554002 | 20.56° C | 39% | 1021.4 hPa | 0 mm | - | 670 W/m² | - |
| 1777553703 | 20.56° C | 41% | 1021.4 hPa | 0 mm | - | 674 W/m² | - |
| 1777553402 | 21.11° C | 38% | 1021.3 hPa | 0 mm | - | 683 W/m² | - |
| 1777553102 | 20.56° C | 39% | 1021.4 hPa | 0 mm | - | 686 W/m² | - |
| 1777552802 | 20.56° C | 38% | 1021.6 hPa | 0 mm | - | 689 W/m² | - |
| 1777552503 | 20° C | 40% | 1021.7 hPa | 0 mm | - | 693 W/m² | - |
* Rain latest hour (hover to see other rain measurements)
** Current wind speed in m/s (hover to see current wind gust speed)